Regional Weather Roundup
Issued by NWS

Home | Current Version | Previous Version | Text Only | Print | Product List | Glossary Off
Versions: 1 2 3 4 5 6 7 8 9 10 11 12 13 14 15 16 17 18 19 20 21 22 23 24 25 26 27 28 29 30 31 32 33 34 35 36 37 38 39 40 41 42 43 44 45 46 47 48 49 50

000
ASUS43 KIND 210659
RWRIN

WEATHER ROUNDUP FOR INDIANA
NATIONAL WEATHER SERVICE INDIANAPOLIS IN
300 AM EDT SAT APR 21 2018

NOTE: "FAIR" INDICATES FEW OR NO CLOUDS BELOW 12,000 FEET WITH NO
SIGNIFICANT WEATHER AND/OR OBSTRUCTIONS TO VISIBILITY.

* - STATION DOES NOT REPORT WEATHER SUCH AS PRECIPITATION OR FOG.

+ - STATION NOT QUALITY CONTROLLED BY THE NATIONAL WEATHER SERVICE.
    USE DATA WITH CAUTION...ESPECIALLY DEWPOINT AND RELATIVE
    HUMIDITY OBSERVATIONS.

INZ001>003-010>013-019-020-210800-
NORTHWEST INDIANA

CITY           SKY/WX    TMP DP  RH WIND       PRES   REMARKS
KNOX *+        FAIR      34  23  64 CALM      30.43F
MONTICELLO +   FAIR      40  20  44 NE5       30.42F WCI  37

$$

LMZ046-743>745-210800-
SOUTHERN LAKE MICHIGAN

STATION/POSITION TIME  TEMP    WIND        PRES    WAVE
                       AIR SEA DIR/SP/G            HT
                 (UTC) (F)     (DEG/KT/KT) (MB)    (FT)
BURNS HARBOR     0640   42      80/  4/  5 1031.2F
MICHIGAN CITY    0630   41      50/  6/  7   N/A

$$

INZ004-005-014>016-021>024-210800-
NORTH CENTRAL INDIANA

CITY           SKY/WX    TMP DP  RH WIND       PRES   REMARKS
GOSHEN         FAIR      36  28  73 CALM      30.43F
PERU/GRISSOM   FAIR     N/A N/A N/A NE7         N/A
ROCHESTER +    FAIR      39  28  65 CALM      30.44F
SOUTH BEND     FAIR      34  18  52 CALM      30.44F
WARSAW +       FAIR      36  28  75 CALM      30.43F

$$

INZ006>009-017-018-025>027-210800-
NORTHEAST INDIANA

CITY           SKY/WX    TMP DP  RH WIND       PRES   REMARKS
ANGOLA *+      FAIR      37  30  75 CALM      30.43F
FORT WAYNE     FAIR      36  28  73 E5        30.44S WCI  32

$$

INZ028-029-035-036-043>045-051>053-210800-
WEST CENTRAL INDIANA

CITY           SKY/WX    TMP DP  RH WIND       PRES   REMARKS
GREENCASTLE +  FAIR      39  27  60 CALM      30.40F
LAFAYETTE      FAIR      42  23  46 NE6       30.41F
TERRE HAUTE    FAIR      38  29  70 E3        30.39F

$$

INZ030>032-037>040-046>048-054>057-064-065-210800-
CENTRAL INDIANA

CITY           SKY/WX    TMP DP  RH WIND       PRES   REMARKS
INDIANAPOLIS   FAIR      44  24  45 E7        30.41F
-EAGLE CREEK   FAIR      41  27  57 CALM      30.41F
KOKOMO +       FAIR      35  29  78 CALM      30.42F
MT COMFORT *+  FAIR      34  28  80 E5        30.42S WCI  30
SHELBYVILLE    FAIR      39  27  62 E8        30.41F WCI  33
ZIONSVILLE +   FAIR      34  30  85 CALM      30.42F

$$

INZ033-034-041-042-049-050-058-059-210800-
EAST CENTRAL INDIANA

CITY           SKY/WX    TMP DP  RH WIND       PRES   REMARKS
MUNCIE         FAIR      40  28  62 CALM      30.42F
RICHMOND +     FAIR      34  30  86 E7        30.43S WCI  28

$$

INZ060-061-067>069-081>083-085>088-210800-
SOUTHWEST INDIANA

CITY           SKY/WX    TMP DP  RH WIND       PRES   REMARKS
EVANSVILLE     FAIR      45  31  58 NE6       30.35F
HUNTINGBURG +  FAIR      46  27  47 NE7       30.37F

$$

INZ062-063-066-070>080-084-089>092-210800-
SOUTH CENTRAL AND SOUTHEAST INDIANA

CITY           SKY/WX    TMP DP  RH WIND       PRES   REMARKS
BLOOMINGTON    FAIR      38  28  67 E5        30.38F WCI  34
SEYMOUR +      FAIR      43  28  56 CALM      30.40F

$$





USA.gov is the U.S. government's official web portal to all federal, state and local government web resources and services.